contact:dominique.lefevre@mio.osupytheas.fr, maurice.libes@osupytheas.fr, didier.mallarino@osupytheas.fr
Project:EMSO http://www.emso-fr.org/EMSO-France
Depth: 2436.0 m
Title:EMSO Ligure Ouest : Data MII capteur MICROCAT
DateTime_Computer,Latitude,Longitude,Temperature,Conductivity,Pressure,DateTime_Instrument
DateTime_Computer,Latitude,Longitude,degC,S m-1,dbar,DateTime_Instrument
2022-02-05T00:02:30Z,42.805,6.029,13.3004,4.60045,2469.867,2022-2-05T02:04:02Z
2022-02-05T00:05:33Z,42.805,6.029,13.3014,4.60044,2469.914,2022-2-05T02:07:05Z
2022-02-05T00:08:36Z,42.805,6.029,13.3006,4.60063,2469.853,2022-2-05T02:10:09Z
2022-02-05T00:11:39Z,42.805,6.029,13.3000,4.60039,2469.853,2022-2-05T02:13:12Z
2022-02-05T00:14:42Z,42.805,6.029,13.3000,4.60049,2469.876,2022-2-05T02:16:15Z
2022-02-05T00:17:45Z,42.805,6.029,13.3006,4.60041,2469.853,2022-2-05T02:19:18Z
2022-02-05T00:20:48Z,42.805,6.029,13.3001,4.60051,2469.863,2022-2-05T02:22:21Z
2022-02-05T00:23:51Z,42.805,6.029,13.3001,4.60049,2469.876,2022-2-05T02:25:24Z
2022-02-05T00:26:55Z,42.805,6.029,13.3005,4.60041,2469.876,2022-2-05T02:28:27Z
2022-02-05T00:29:58Z,42.805,6.029,13.3009,4.60047,2469.89,2022-2-05T02:31:30Z
2022-02-05T00:33:01Z,42.805,6.029,13.3005,4.60041,2469.876,2022-2-05T02:34:34Z
2022-02-05T00:36:04Z,42.805,6.029,13.3009,4.60044,2469.876,2022-2-05T02:37:37Z
2022-02-05T00:39:07Z,42.805,6.029,13.3004,4.60039,2469.853,2022-2-05T02:40:40Z
2022-02-05T00:42:10Z,42.805,6.029,13.2999,4.60041,2469.867,2022-2-05T02:43:43Z
2022-02-05T00:45:13Z,42.805,6.029,13.3004,4.60041,2469.89,2022-2-05T02:46:46Z
2022-02-05T00:48:16Z,42.805,6.029,13.3011,4.60046,2469.853,2022-2-05T02:49:49Z
2022-02-05T00:51:20Z,42.805,6.029,13.3014,4.60043,2469.853,2022-2-05T02:52:52Z
2022-02-05T00:54:23Z,42.805,6.029,13.3004,4.60046,2469.9,2022-2-05T02:55:55Z
2022-02-05T00:57:26Z,42.805,6.029,13.3003,4.60055,2469.89,2022-2-05T02:58:59Z
2022-02-05T01:00:29Z,42.805,6.029,13.3007,4.60056,2469.867,2022-2-05T03:02:02Z
2022-02-05T01:03:32Z,42.805,6.029,13.3002,4.60036,2469.83,2022-2-05T03:05:05Z
2022-02-05T01:06:35Z,42.805,6.029,13.3009,4.60046,2469.876,2022-2-05T03:08:08Z
2022-02-05T01:09:38Z,42.805,6.029,13.3004,4.60037,2469.844,2022-2-05T03:11:11Z
2022-02-05T01:12:41Z,42.805,6.029,13.3002,4.60053,2469.853,2022-2-05T03:14:14Z
2022-02-05T01:15:44Z,42.805,6.029,13.2997,4.60036,2469.89,2022-2-05T03:17:17Z
2022-02-05T01:18:48Z,42.805,6.029,13.3002,4.60043,2469.867,2022-2-05T03:20:20Z
2022-02-05T01:21:51Z,42.805,6.029,13.3004,4.60045,2469.876,2022-2-05T03:23:23Z
2022-02-05T01:24:54Z,42.805,6.029,13.3009,4.60049,2469.867,2022-2-05T03:26:27Z
2022-02-05T01:27:57Z,42.805,6.029,13.3004,4.60045,2469.876,2022-2-05T03:29:30Z
2022-02-05T01:31:00Z,42.805,6.029,13.3004,4.60048,2469.853,2022-2-05T03:32:33Z
2022-02-05T01:34:03Z,42.805,6.029,13.3004,4.60042,2469.867,2022-2-05T03:35:36Z
2022-02-05T01:37:06Z,42.805,6.029,13.3004,4.60044,2469.853,2022-2-05T03:38:39Z
2022-02-05T01:40:09Z,42.805,6.029,13.3003,4.60058,2469.853,2022-2-05T03:41:42Z
2022-02-05T01:43:13Z,42.805,6.029,13.3006,4.60053,2469.867,2022-2-05T03:44:45Z
2022-02-05T01:46:16Z,42.805,6.029,13.3007,4.60049,2469.853,2022-2-05T03:47:48Z
2022-02-05T01:49:19Z,42.805,6.029,13.3006,4.60046,2469.867,2022-2-05T03:50:51Z
2022-02-05T01:52:22Z,42.805,6.029,13.3006,4.60044,2469.83,2022-2-05T03:53:55Z
2022-02-05T01:55:25Z,42.805,6.029,13.3013,4.60048,2469.867,2022-2-05T03:56:58Z
2022-02-05T01:58:28Z,42.805,6.029,13.3014,4.60061,2469.876,2022-2-05T04:00:01Z
2022-02-05T02:01:31Z,42.805,6.029,13.3006,4.60069,2469.89,2022-2-05T04:03:04Z
2022-02-05T02:04:34Z,42.805,6.029,13.3009,4.60051,2469.867,2022-2-05T04:06:07Z
2022-02-05T02:07:37Z,42.805,6.029,13.3009,4.60048,2469.876,2022-2-05T04:09:10Z
2022-02-05T02:10:41Z,42.805,6.029,13.3004,4.60053,2469.867,2022-2-05T04:12:13Z
2022-02-05T02:13:44Z,42.805,6.029,13.3004,4.60057,2469.876,2022-2-05T04:15:16Z
2022-02-05T02:16:47Z,42.805,6.029,13.3012,4.60060,2469.844,2022-2-05T04:18:20Z
2022-02-05T02:19:50Z,42.805,6.029,13.3010,4.60050,2469.867,2022-2-05T04:21:23Z
2022-02-05T02:22:53Z,42.805,6.029,13.3006,4.60056,2469.853,2022-2-05T04:24:26Z
2022-02-05T02:25:56Z,42.805,6.029,13.3008,4.60057,2469.853,2022-2-05T04:27:29Z
2022-02-05T02:28:59Z,42.805,6.029,13.3008,4.60061,2469.853,2022-2-05T04:30:32Z
2022-02-05T02:32:02Z,42.805,6.029,13.3005,4.60046,2469.83,2022-2-05T04:33:35Z
2022-02-05T02:35:06Z,42.805,6.029,13.3008,4.60041,2469.83,2022-2-05T04:36:38Z
2022-02-05T02:38:09Z,42.805,6.029,13.3004,4.60051,2469.806,2022-2-05T04:39:41Z
2022-02-05T02:41:12Z,42.805,6.029,13.3010,4.60049,2469.844,2022-2-05T04:42:45Z
2022-02-05T02:44:15Z,42.805,6.029,13.3011,4.60056,2469.876,2022-2-05T04:45:48Z
2022-02-05T02:47:18Z,42.805,6.029,13.3008,4.60061,2469.876,2022-2-05T04:48:51Z
2022-02-05T02:50:21Z,42.805,6.029,13.3012,4.60056,2469.876,2022-2-05T04:51:54Z
2022-02-05T02:53:24Z,42.805,6.029,13.3006,4.60050,2469.867,2022-2-05T04:54:57Z
2022-02-05T02:56:27Z,42.805,6.029,13.3004,4.60041,2469.867,2022-2-05T04:58:00Z
2022-02-05T02:59:31Z,42.805,6.029,13.3007,4.60054,2469.867,2022-2-05T05:01:03Z
2022-02-05T03:02:34Z,42.805,6.029,13.3010,4.60048,2469.853,2022-2-05T05:04:06Z
2022-02-05T03:05:37Z,42.805,6.029,13.3005,4.60045,2469.867,2022-2-05T05:07:09Z
2022-02-05T03:08:40Z,42.805,6.029,13.3009,4.60046,2469.867,2022-2-05T05:10:13Z
2022-02-05T03:11:43Z,42.805,6.029,13.3008,4.60039,2469.867,2022-2-05T05:13:16Z
2022-02-05T03:14:46Z,42.805,6.029,13.3005,4.60038,2469.89,2022-2-05T05:16:19Z
2022-02-05T03:17:49Z,42.805,6.029,13.3004,4.60039,2469.863,2022-2-05T05:19:22Z
2022-02-05T03:20:52Z,42.805,6.029,13.3005,4.60043,2469.83,2022-2-05T05:22:25Z
2022-02-05T03:23:55Z,42.805,6.029,13.3002,4.60044,2469.867,2022-2-05T05:25:28Z
2022-02-05T03:26:59Z,42.805,6.029,13.3007,4.60045,2469.876,2022-2-05T05:28:31Z
2022-02-05T03:30:02Z,42.805,6.029,13.3004,4.60039,2469.853,2022-2-05T05:31:34Z
2022-02-05T03:33:05Z,42.805,6.029,13.3009,4.60044,2469.881,2022-2-05T05:34:38Z
2022-02-05T03:36:08Z,42.805,6.029,13.3006,4.60044,2469.853,2022-2-05T05:37:41Z
2022-02-05T03:39:11Z,42.805,6.029,13.3006,4.60046,2469.853,2022-2-05T05:40:44Z
2022-02-05T03:42:14Z,42.805,6.029,13.3002,4.60052,2469.853,2022-2-05T05:43:47Z
2022-02-05T03:45:17Z,42.805,6.029,13.3000,4.60037,2469.844,2022-2-05T05:46:50Z
2022-02-05T03:48:20Z,42.805,6.029,13.3007,4.60052,2469.867,2022-2-05T05:49:53Z
2022-02-05T03:51:24Z,42.805,6.029,13.3008,4.60045,2469.876,2022-2-05T05:52:56Z
2022-02-05T03:54:27Z,42.805,6.029,13.3002,4.60033,2469.867,2022-2-05T05:55:59Z
2022-02-05T03:57:30Z,42.805,6.029,13.3005,4.60041,2469.89,2022-2-05T05:59:02Z
2022-02-05T04:00:33Z,42.805,6.029,13.3004,4.60043,2469.853,2022-2-05T06:02:06Z
2022-02-05T04:03:36Z,42.805,6.029,13.3006,4.60037,2469.853,2022-2-05T06:05:09Z
2022-02-05T04:06:39Z,42.805,6.029,13.3002,4.60039,2469.853,2022-2-05T06:08:12Z
2022-02-05T04:09:42Z,42.805,6.029,13.3002,4.60039,2469.853,2022-2-05T06:11:15Z
2022-02-05T04:12:45Z,42.805,6.029,13.3003,4.60040,2469.83,2022-2-05T06:14:18Z
2022-02-05T04:15:48Z,42.805,6.029,13.3007,4.60040,2469.83,2022-2-05T06:17:21Z
2022-02-05T04:18:52Z,42.805,6.029,13.3001,4.60038,2469.821,2022-2-05T06:20:24Z
2022-02-05T04:21:55Z,42.805,6.029,13.3002,4.60033,2469.853,2022-2-05T06:23:27Z
2022-02-05T04:24:58Z,42.805,6.029,13.3005,4.60036,2469.844,2022-2-05T06:26:31Z
2022-02-05T04:28:01Z,42.805,6.029,13.3003,4.60038,2469.844,2022-2-05T06:29:34Z
2022-02-05T04:31:04Z,42.805,6.029,13.3000,4.60041,2469.844,2022-2-05T06:32:37Z
2022-02-05T04:34:07Z,42.805,6.029,13.3000,4.60039,2469.867,2022-2-05T06:35:40Z
2022-02-05T04:37:10Z,42.805,6.029,13.3005,4.60039,2469.83,2022-2-05T06:38:43Z
2022-02-05T04:40:13Z,42.805,6.029,13.3004,4.60038,2469.853,2022-2-05T06:41:46Z
2022-02-05T04:43:17Z,42.805,6.029,13.2999,4.60033,2469.867,2022-2-05T06:44:49Z
2022-02-05T04:46:20Z,42.805,6.029,13.3004,4.60035,2469.881,2022-2-05T06:47:52Z
2022-02-05T04:49:23Z,42.805,6.029,13.3004,4.60035,2469.806,2022-2-05T06:50:55Z
2022-02-05T04:52:26Z,42.805,6.029,13.2998,4.60036,2469.844,2022-2-05T06:53:59Z
2022-02-05T04:55:29Z,42.805,6.029,13.3000,4.60038,2469.844,2022-2-05T06:57:02Z
2022-02-05T04:58:32Z,42.805,6.029,13.3001,4.60040,2469.844,2022-2-05T07:00:05Z
2022-02-05T05:01:35Z,42.805,6.029,13.3006,4.60039,2469.867,2022-2-05T07:03:08Z
2022-02-05T05:04:38Z,42.805,6.029,13.3000,4.60042,2469.83,2022-2-05T07:06:11Z
2022-02-05T05:07:41Z,42.805,6.029,13.3004,4.60039,2469.853,2022-2-05T07:09:14Z
2022-02-05T05:10:45Z,42.805,6.029,13.2998,4.60036,2469.844,2022-2-05T07:12:17Z
2022-02-05T05:13:48Z,42.805,6.029,13.3006,4.60047,2469.83,2022-2-05T07:15:20Z
2022-02-05T05:16:51Z,42.805,6.029,13.3009,4.60045,2469.821,2022-2-05T07:18:24Z
2022-02-05T05:19:54Z,42.805,6.029,13.3005,4.60039,2469.83,2022-2-05T07:21:27Z
2022-02-05T05:22:57Z,42.805,6.029,13.3004,4.60037,2469.844,2022-2-05T07:24:30Z
2022-02-05T05:26:00Z,42.805,6.029,13.3005,4.60046,2469.867,2022-2-05T07:27:33Z
2022-02-05T05:29:03Z,42.805,6.029,13.3003,4.60044,2469.83,2022-2-05T07:30:36Z
2022-02-05T05:32:06Z,42.805,6.029,13.3005,4.60054,2469.83,2022-2-05T07:33:39Z
2022-02-05T05:35:10Z,42.805,6.029,13.3006,4.60036,2469.83,2022-2-05T07:36:42Z
2022-02-05T05:38:13Z,42.805,6.029,13.3004,4.60036,2469.83,2022-2-05T07:39:45Z
2022-02-05T05:41:16Z,42.805,6.029,13.3010,4.60037,2469.853,2022-2-05T07:42:48Z
2022-02-05T05:44:19Z,42.805,6.029,13.3003,4.60042,2469.867,2022-2-05T07:45:52Z
2022-02-05T05:47:22Z,42.805,6.029,13.3009,4.60040,2469.83,2022-2-05T07:48:55Z
2022-02-05T05:50:25Z,42.805,6.029,13.3000,4.60031,2469.853,2022-2-05T07:51:58Z
2022-02-05T05:53:28Z,42.805,6.029,13.3004,4.60036,2469.844,2022-2-05T07:55:01Z
2022-02-05T05:56:31Z,42.805,6.029,13.3006,4.60039,2469.867,2022-2-05T07:58:04Z
2022-02-05T05:59:34Z,42.805,6.029,13.3001,4.60039,2469.853,2022-2-05T08:01:07Z
2022-02-05T06:02:38Z,42.805,6.029,13.2999,4.60034,2469.867,2022-2-05T08:04:10Z
2022-02-05T06:05:41Z,42.805,6.029,13.3004,4.60038,2469.89,2022-2-05T08:07:13Z
2022-02-05T06:08:44Z,42.805,6.029,13.3003,4.60036,2469.83,2022-2-05T08:10:17Z
2022-02-05T06:11:47Z,42.805,6.029,13.3006,4.60039,2469.876,2022-2-05T08:13:20Z
2022-02-05T06:14:50Z,42.805,6.029,13.3002,4.60045,2469.853,2022-2-05T08:16:23Z
2022-02-05T06:17:53Z,42.805,6.029,13.3004,4.60037,2469.9,2022-2-05T08:19:26Z
2022-02-05T06:20:56Z,42.805,6.029,13.3004,4.60050,2469.867,2022-2-05T08:22:29Z
2022-02-05T06:23:59Z,42.805,6.029,13.3000,4.60034,2469.867,2022-2-05T08:25:32Z
2022-02-05T06:27:03Z,42.805,6.029,13.3002,4.60050,2469.9,2022-2-05T08:28:35Z
2022-02-05T06:30:06Z,42.805,6.029,13.3006,4.60041,2469.876,2022-2-05T08:31:38Z
2022-02-05T06:33:09Z,42.805,6.029,13.3000,4.60038,2469.853,2022-2-05T08:34:41Z
2022-02-05T06:36:12Z,42.805,6.029,13.3006,4.60039,2469.853,2022-2-05T08:37:45Z
2022-02-05T06:39:15Z,42.805,6.029,13.3000,4.60033,2469.853,2022-2-05T08:40:48Z
2022-02-05T06:42:18Z,42.805,6.029,13.3005,4.60033,2469.89,2022-2-05T08:43:51Z
2022-02-05T06:45:21Z,42.805,6.029,13.3004,4.60036,2469.876,2022-2-05T08:46:54Z
2022-02-05T06:48:24Z,42.805,6.029,13.3009,4.60044,2469.89,2022-2-05T08:49:57Z
2022-02-05T06:51:27Z,42.805,6.029,13.3008,4.60043,2469.876,2022-2-05T08:53:00Z
2022-02-05T06:54:31Z,42.805,6.029,13.3002,4.60035,2469.9,2022-2-05T08:56:03Z
2022-02-05T06:57:34Z,42.805,6.029,13.3006,4.60049,2469.9,2022-2-05T08:59:06Z
2022-02-05T07:00:37Z,42.805,6.029,13.3000,4.60039,2469.867,2022-2-05T09:02:10Z
2022-02-05T07:03:40Z,42.805,6.029,13.3007,4.60039,2469.876,2022-2-05T09:05:13Z
2022-02-05T07:06:43Z,42.805,6.029,13.3005,4.60039,2469.876,2022-2-05T09:08:16Z
2022-02-05T07:09:46Z,42.805,6.029,13.3002,4.60041,2469.89,2022-2-05T09:11:19Z
2022-02-05T07:12:49Z,42.805,6.029,13.2996,4.60035,2469.937,2022-2-05T09:14:22Z
2022-02-05T07:15:52Z,42.805,6.029,13.3002,4.60039,2469.923,2022-2-05T09:17:25Z
2022-02-05T07:18:56Z,42.805,6.029,13.3006,4.60049,2469.923,2022-2-05T09:20:28Z
2022-02-05T07:21:59Z,42.805,6.029,13.3006,4.60044,2469.876,2022-2-05T09:23:31Z
2022-02-05T07:25:02Z,42.805,6.029,13.3008,4.60050,2469.937,2022-2-05T09:26:34Z
2022-02-05T07:28:05Z,42.805,6.029,13.3000,4.60041,2469.937,2022-2-05T09:29:38Z
2022-02-05T07:31:08Z,42.805,6.029,13.3009,4.60040,2469.923,2022-2-05T09:32:41Z
2022-02-05T07:34:11Z,42.805,6.029,13.3000,4.60038,2469.9,2022-2-05T09:35:44Z
2022-02-05T07:37:14Z,42.805,6.029,13.3005,4.60039,2469.914,2022-2-05T09:38:47Z
2022-02-05T07:40:17Z,42.805,6.029,13.3003,4.60043,2469.914,2022-2-05T09:41:50Z
2022-02-05T07:43:20Z,42.805,6.029,13.3009,4.60050,2469.937,2022-2-05T09:44:53Z
2022-02-05T07:46:24Z,42.805,6.029,13.3006,4.60053,2469.937,2022-2-05T09:47:56Z
2022-02-05T07:49:27Z,42.805,6.029,13.3006,4.60042,2469.937,2022-2-05T09:50:59Z
2022-02-05T07:52:30Z,42.805,6.029,13.3004,4.60040,2469.9,2022-2-05T09:54:03Z
2022-02-05T07:55:33Z,42.805,6.029,13.3004,4.60047,2469.923,2022-2-05T09:57:06Z
2022-02-05T07:58:36Z,42.805,6.029,13.3009,4.60046,2469.947,2022-2-05T10:00:09Z
2022-02-05T08:01:39Z,42.805,6.029,13.3007,4.60042,2469.97,2022-2-05T10:03:12Z
2022-02-05T08:04:42Z,42.805,6.029,13.3009,4.60048,2469.937,2022-2-05T10:06:15Z
2022-02-05T08:07:45Z,42.805,6.029,13.3008,4.60049,2469.97,2022-2-05T10:09:18Z
2022-02-05T08:10:49Z,42.805,6.029,13.3008,4.60054,2469.993,2022-2-05T10:12:21Z
2022-02-05T08:13:52Z,42.805,6.029,13.3011,4.60051,2469.97,2022-2-05T10:15:24Z
2022-02-05T08:16:55Z,42.805,6.029,13.3006,4.60037,2470.017,2022-2-05T10:18:28Z
2022-02-05T08:19:58Z,42.805,6.029,13.3003,4.60038,2470.007,2022-2-05T10:21:31Z
2022-02-05T08:23:01Z,42.805,6.029,13.3006,4.60046,2470.017,2022-2-05T10:24:34Z
2022-02-05T08:26:04Z,42.805,6.029,13.3004,4.60049,2470.03,2022-2-05T10:27:37Z
2022-02-05T08:29:07Z,42.805,6.029,13.3000,4.60039,2470.03,2022-2-05T10:30:40Z
2022-02-05T08:32:10Z,42.805,6.029,13.3000,4.60038,2470.007,2022-2-05T10:33:43Z
2022-02-05T08:35:14Z,42.805,6.029,13.3005,4.60042,2470.017,2022-2-05T10:36:46Z
2022-02-05T08:38:17Z,42.805,6.029,13.2999,4.60041,2470.017,2022-2-05T10:39:49Z
2022-02-05T08:41:20Z,42.805,6.029,13.3004,4.60036,2470.077,2022-2-05T10:42:53Z
2022-02-05T08:44:23Z,42.805,6.029,13.3004,4.60041,2470.04,2022-2-05T10:45:56Z
2022-02-05T08:47:26Z,42.805,6.029,13.3009,4.60039,2470.077,2022-2-05T10:48:59Z
2022-02-05T08:50:29Z,42.805,6.029,13.3003,4.60036,2470.063,2022-2-05T10:52:02Z
2022-02-05T08:53:32Z,42.805,6.029,13.3000,4.60033,2470.063,2022-2-05T10:55:05Z
2022-02-05T08:56:35Z,42.805,6.029,13.3004,4.60039,2470.063,2022-2-05T10:58:08Z
2022-02-05T08:59:39Z,42.805,6.029,13.3004,4.60038,2470.063,2022-2-05T11:01:11Z
2022-02-05T09:02:42Z,42.805,6.029,13.3002,4.60041,2470.063,2022-2-05T11:04:14Z
2022-02-05T09:05:45Z,42.805,6.029,13.3005,4.60044,2470.077,2022-2-05T11:07:17Z
2022-02-05T09:08:48Z,42.805,6.029,13.3002,4.60038,2470.063,2022-2-05T11:10:21Z
2022-02-05T09:11:51Z,42.805,6.029,13.3003,4.60038,2470.077,2022-2-05T11:13:24Z
2022-02-05T09:14:54Z,42.805,6.029,13.3011,4.60043,2470.087,2022-2-05T11:16:27Z
2022-02-05T09:17:57Z,42.805,6.029,13.3002,4.60045,2470.063,2022-2-05T11:19:30Z
2022-02-05T09:21:00Z,42.805,6.029,13.2998,4.60044,2470.1,2022-2-05T11:22:33Z
2022-02-05T09:24:04Z,42.805,6.029,13.2999,4.60036,2470.1,2022-2-05T11:25:36Z
2022-02-05T09:27:07Z,42.805,6.029,13.2999,4.60035,2470.073,2022-2-05T11:28:39Z
2022-02-05T09:30:10Z,42.805,6.029,13.3003,4.60035,2470.087,2022-2-05T11:31:43Z
2022-02-05T09:33:13Z,42.805,6.029,13.3000,4.60036,2470.11,2022-2-05T11:34:46Z
2022-02-05T09:36:16Z,42.805,6.029,13.3011,4.60037,2470.087,2022-2-05T11:37:49Z
2022-02-05T09:39:19Z,42.805,6.029,13.3002,4.60033,2470.124,2022-2-05T11:40:52Z
2022-02-05T09:42:22Z,42.805,6.029,13.3006,4.60042,2470.124,2022-2-05T11:43:55Z
2022-02-05T09:45:25Z,42.805,6.029,13.3000,4.60035,2470.124,2022-2-05T11:46:58Z
2022-02-05T09:48:28Z,42.805,6.029,13.3004,4.60040,2470.087,2022-2-05T11:50:01Z
2022-02-05T09:51:32Z,42.805,6.029,13.3008,4.60045,2470.11,2022-2-05T11:53:04Z
2022-02-05T09:54:35Z,42.805,6.029,13.3004,4.60038,2470.087,2022-2-05T11:56:07Z
2022-02-05T09:57:38Z,42.805,6.029,13.3005,4.60046,2470.11,2022-2-05T11:59:11Z
2022-02-05T10:00:41Z,42.805,6.029,13.2999,4.60035,2470.133,2022-2-05T12:02:14Z
2022-02-05T10:03:44Z,42.805,6.029,13.3004,4.60039,2470.124,2022-2-05T12:05:17Z
2022-02-05T10:06:47Z,42.805,6.029,13.3000,4.60036,2470.147,2022-2-05T12:08:20Z
2022-02-05T10:09:50Z,42.805,6.029,13.3000,4.60033,2470.11,2022-2-05T12:11:23Z
2022-02-05T10:12:53Z,42.805,6.029,13.3004,4.60037,2470.133,2022-2-05T12:14:26Z
2022-02-05T10:15:57Z,42.805,6.029,13.3001,4.60034,2470.133,2022-2-05T12:17:29Z
2022-02-05T10:19:00Z,42.805,6.029,13.2998,4.60039,2470.11,2022-2-05T12:20:32Z
2022-02-05T10:22:03Z,42.805,6.029,13.3003,4.60055,2470.11,2022-2-05T12:23:36Z
2022-02-05T10:25:06Z,42.805,6.029,13.3004,4.60033,2470.133,2022-2-05T12:26:39Z
2022-02-05T10:28:09Z,42.805,6.029,13.2997,4.60041,2470.133,2022-2-05T12:29:42Z
2022-02-05T10:31:12Z,42.805,6.029,13.3001,4.60033,2470.087,2022-2-05T12:32:45Z
2022-02-05T10:34:15Z,42.805,6.029,13.3004,4.60035,2470.11,2022-2-05T12:35:48Z
2022-02-05T10:37:18Z,42.805,6.029,13.3006,4.60044,2470.11,2022-2-05T12:38:51Z
2022-02-05T10:40:22Z,42.805,6.029,13.2999,4.60042,2470.124,2022-2-05T12:41:54Z
2022-02-05T10:43:25Z,42.805,6.029,13.3006,4.60051,2470.156,2022-2-05T12:44:57Z
2022-02-05T10:46:28Z,42.805,6.029,13.3019,4.60060,2470.147,2022-2-05T12:48:01Z
2022-02-05T10:49:31Z,42.805,6.029,13.3004,4.60044,2470.133,2022-2-05T12:51:04Z
2022-02-05T10:52:34Z,42.805,6.029,13.2998,4.60037,2470.133,2022-2-05T12:54:07Z
2022-02-05T10:55:37Z,42.805,6.029,13.3004,4.60052,2470.133,2022-2-05T12:57:10Z
2022-02-05T10:58:40Z,42.805,6.029,13.3005,4.60059,2470.11,2022-2-05T13:00:13Z
2022-02-05T11:01:43Z,42.805,6.029,13.3000,4.60055,2470.147,2022-2-05T13:03:16Z
2022-02-05T11:04:47Z,42.805,6.029,13.3005,4.60051,2470.147,2022-2-05T13:06:19Z
2022-02-05T11:07:50Z,42.805,6.029,13.3004,4.60034,2470.133,2022-2-05T13:09:22Z
2022-02-05T11:10:53Z,42.805,6.029,13.3005,4.60039,2470.133,2022-2-05T13:12:26Z
2022-02-05T11:13:56Z,42.805,6.029,13.3001,4.60040,2470.147,2022-2-05T13:15:29Z
2022-02-05T11:16:59Z,42.805,6.029,13.3003,4.60037,2470.147,2022-2-05T13:18:32Z
2022-02-05T11:20:02Z,42.805,6.029,13.3000,4.60046,2470.11,2022-2-05T13:21:35Z
2022-02-05T11:23:05Z,42.805,6.029,13.3004,4.60033,2470.124,2022-2-05T13:24:38Z
2022-02-05T11:26:08Z,42.805,6.029,13.3000,4.60036,2470.147,2022-2-05T13:27:41Z
2022-02-05T11:29:12Z,42.805,6.029,13.3004,4.60041,2470.124,2022-2-05T13:30:44Z
2022-02-05T11:32:15Z,42.805,6.029,13.2999,4.60033,2470.124,2022-2-05T13:33:47Z
2022-02-05T11:35:18Z,42.805,6.029,13.3004,4.60036,2470.11,2022-2-05T13:36:51Z
2022-02-05T11:38:21Z,42.805,6.029,13.3000,4.60033,2470.124,2022-2-05T13:39:54Z
2022-02-05T11:41:24Z,42.805,6.029,13.2998,4.60033,2470.124,2022-2-05T13:42:57Z
2022-02-05T11:44:27Z,42.805,6.029,13.3002,4.60046,2470.147,2022-2-05T13:46:00Z
2022-02-05T11:47:30Z,42.805,6.029,13.3001,4.60044,2470.11,2022-2-05T13:49:03Z
2022-02-05T11:50:33Z,42.805,6.029,13.3003,4.60038,2470.133,2022-2-05T13:52:06Z
2022-02-05T11:53:37Z,42.805,6.029,13.2999,4.60031,2470.087,2022-2-05T13:55:09Z
2022-02-05T11:56:40Z,42.805,6.029,13.3003,4.60041,2470.147,2022-2-05T13:58:12Z
2022-02-05T11:59:43Z,42.805,6.029,13.3002,4.60049,2470.11,2022-2-05T14:01:16Z
2022-02-05T12:02:46Z,42.805,6.029,13.3000,4.60041,2470.124,2022-2-05T14:04:19Z
2022-02-05T12:05:49Z,42.805,6.029,13.2999,4.60048,2470.1,2022-2-05T14:07:22Z
2022-02-05T12:08:52Z,42.805,6.029,13.3004,4.60034,2470.1,2022-2-05T14:10:25Z
2022-02-05T12:11:55Z,42.805,6.029,13.3007,4.60051,2470.087,2022-2-05T14:13:28Z
2022-02-05T12:14:58Z,42.805,6.029,13.3006,4.60039,2470.133,2022-2-05T14:16:31Z
2022-02-05T12:18:02Z,42.805,6.029,13.3008,4.60043,2470.1,2022-2-05T14:19:34Z
2022-02-05T12:21:05Z,42.805,6.029,13.3008,4.60047,2470.11,2022-2-05T14:22:37Z
2022-02-05T12:24:08Z,42.805,6.029,13.3001,4.60040,2470.04,2022-2-05T14:25:40Z
2022-02-05T12:27:11Z,42.805,6.029,13.3002,4.60043,2470.1,2022-2-05T14:28:44Z
2022-02-05T12:30:14Z,42.805,6.029,13.3005,4.60042,2470.11,2022-2-05T14:31:47Z
2022-02-05T12:33:17Z,42.805,6.029,13.3000,4.60060,2470.1,2022-2-05T14:34:50Z
2022-02-05T12:36:20Z,42.805,6.029,13.3007,4.60047,2470.11,2022-2-05T14:37:53Z
2022-02-05T12:39:23Z,42.805,6.029,13.3006,4.60054,2470.11,2022-2-05T14:40:56Z
2022-02-05T12:42:26Z,42.805,6.029,13.3016,4.60057,2470.124,2022-2-05T14:43:59Z
2022-02-05T12:45:30Z,42.805,6.029,13.3004,4.60044,2470.227,2022-2-05T14:47:02Z
2022-02-05T12:48:33Z,42.805,6.029,13.3000,4.60041,2470.171,2022-2-05T14:50:05Z
2022-02-05T12:51:36Z,42.805,6.029,13.3006,4.60052,2470.04,2022-2-05T14:53:09Z
2022-02-05T12:54:39Z,42.805,6.029,13.3006,4.60046,2470.017,2022-2-05T14:56:12Z
2022-02-05T12:57:42Z,42.805,6.029,13.3009,4.60043,2470.053,2022-2-05T14:59:15Z
2022-02-05T13:00:45Z,42.805,6.029,13.3011,4.60040,2470.03,2022-2-05T15:02:18Z
2022-02-05T13:03:48Z,42.805,6.029,13.3006,4.60039,2470.077,2022-2-05T15:05:21Z
2022-02-05T13:06:51Z,42.805,6.029,13.3004,4.60055,2470.063,2022-2-05T15:08:24Z
2022-02-05T13:09:55Z,42.805,6.029,13.3003,4.60054,2470.077,2022-2-05T15:11:27Z
2022-02-05T13:12:58Z,42.805,6.029,13.3000,4.60056,2470.077,2022-2-05T15:14:30Z
2022-02-05T13:16:01Z,42.805,6.029,13.3002,4.60059,2470.077,2022-2-05T15:17:34Z
2022-02-05T13:19:04Z,42.805,6.029,13.3006,4.60042,2470.063,2022-2-05T15:20:37Z
2022-02-05T13:22:07Z,42.805,6.029,13.3004,4.60050,2470.04,2022-2-05T15:23:40Z
2022-02-05T13:25:10Z,42.805,6.029,13.3003,4.60049,2470.063,2022-2-05T15:26:43Z
2022-02-05T13:28:13Z,42.805,6.029,13.3006,4.60040,2470.04,2022-2-05T15:29:46Z
2022-02-05T13:31:16Z,42.805,6.029,13.3000,4.60038,2470.04,2022-2-05T15:32:49Z
2022-02-05T13:34:20Z,42.805,6.029,13.3004,4.60039,2470.04,2022-2-05T15:35:52Z
2022-02-05T13:37:23Z,42.805,6.029,13.3004,4.60064,2470.03,2022-2-05T15:38:55Z
2022-02-05T13:40:26Z,42.805,6.029,13.3007,4.60059,2470.026,2022-2-05T15:41:59Z
2022-02-05T13:43:29Z,42.805,6.029,13.3005,4.60042,2470.04,2022-2-05T15:45:02Z
2022-02-05T13:46:32Z,42.805,6.029,13.3000,4.60054,2470.03,2022-2-05T15:48:05Z
2022-02-05T13:49:35Z,42.805,6.029,13.2998,4.60043,2470.04,2022-2-05T15:51:08Z
2022-02-05T13:52:38Z,42.805,6.029,13.3006,4.60049,2470.04,2022-2-05T15:54:11Z
2022-02-05T13:55:41Z,42.805,6.029,13.3000,4.60044,2470.017,2022-2-05T15:57:14Z
2022-02-05T13:58:45Z,42.805,6.029,13.3010,4.60052,2470.04,2022-2-05T16:00:17Z
2022-02-05T14:01:48Z,42.805,6.029,13.3006,4.60053,2470.03,2022-2-05T16:03:20Z
2022-02-05T14:04:51Z,42.805,6.029,13.3000,4.60046,2470.04,2022-2-05T16:06:24Z
2022-02-05T14:07:54Z,42.805,6.029,13.3004,4.60050,2469.993,2022-2-05T16:09:27Z
2022-02-05T14:10:57Z,42.805,6.029,13.3008,4.60057,2470.017,2022-2-05T16:12:30Z
2022-02-05T14:14:00Z,42.805,6.029,13.2999,4.60054,2470.053,2022-2-05T16:15:33Z
2022-02-05T14:17:03Z,42.805,6.029,13.2999,4.60032,2470.017,2022-2-05T16:18:36Z
2022-02-05T14:20:06Z,42.805,6.029,13.3009,4.60057,2470.04,2022-2-05T16:21:39Z
2022-02-05T14:23:10Z,42.805,6.029,13.3003,4.60048,2469.993,2022-2-05T16:24:42Z
2022-02-05T14:26:13Z,42.805,6.029,13.3003,4.60052,2469.993,2022-2-05T16:27:45Z
2022-02-05T14:29:16Z,42.805,6.029,13.3011,4.60069,2469.993,2022-2-05T16:30:49Z
2022-02-05T14:32:19Z,42.805,6.029,13.3001,4.60047,2470.007,2022-2-05T16:33:52Z
2022-02-05T14:35:22Z,42.805,6.029,13.3006,4.60053,2469.993,2022-2-05T16:36:55Z
2022-02-05T14:38:25Z,42.805,6.029,13.3016,4.60057,2469.984,2022-2-05T16:39:58Z
2022-02-05T14:41:28Z,42.805,6.029,13.3002,4.60056,2470.007,2022-2-05T16:43:01Z
2022-02-05T14:44:31Z,42.805,6.029,13.3000,4.60046,2469.993,2022-2-05T16:46:04Z
2022-02-05T14:47:35Z,42.805,6.029,13.3000,4.60045,2469.97,2022-2-05T16:49:07Z
2022-02-05T14:50:38Z,42.805,6.029,13.3000,4.60045,2470.017,2022-2-05T16:52:10Z
2022-02-05T14:53:41Z,42.805,6.029,13.3004,4.60056,2470.007,2022-2-05T16:55:14Z
2022-02-05T14:56:44Z,42.805,6.029,13.2998,4.60043,2469.993,2022-2-05T16:58:17Z
2022-02-05T14:59:47Z,42.805,6.029,13.3000,4.60049,2470.017,2022-2-05T17:01:20Z
2022-02-05T15:02:50Z,42.805,6.029,13.3001,4.60040,2470.007,2022-2-05T17:04:23Z
2022-02-05T15:05:53Z,42.805,6.029,13.3004,4.60046,2470.007,2022-2-05T17:07:26Z
2022-02-05T15:08:56Z,42.805,6.029,13.3004,4.60046,2469.993,2022-2-05T17:10:29Z
2022-02-05T15:12:00Z,42.805,6.029,13.3004,4.60057,2470.007,2022-2-05T17:13:32Z
2022-02-05T15:15:03Z,42.805,6.029,13.3002,4.60045,2469.993,2022-2-05T17:16:35Z